owner,sensor,date,latitude,longitude,vertical_datum,sea_water_temperature,qcFlag 
Scripps,ioos:station:wmo:42099:1,2016-10-01T00:30:00Z,27.3400,-84.2750,0.0,29.85,2 
Scripps,ioos:station:wmo:42099:1,2016-10-01T01:00:00Z,27.3400,-84.2750,0.0,29.8,2 
Scripps,ioos:station:wmo:42099:1,2016-10-01T02:00:00Z,27.3400,-84.2750,0.0,29.75,2 
Scripps,ioos:station:wmo:42099:1,2016-10-01T03:30:00Z,27.3400,-84.2750,0.0,29.65,2 
Scripps,ioos:station:wmo:42099:1,2016-10-01T05:00:00Z,27.3400,-84.2750,0.0,29.65,2 
Scripps,ioos:station:wmo:42099:1,2016-10-01T06:00:00Z,27.3400,-84.2750,0.0,29.65,2 
Scripps,ioos:station:wmo:42099:1,2016-10-01T07:30:00Z,27.3400,-84.2750,0.0,29.6,2 
Scripps,ioos:station:wmo:42099:1,2016-10-01T08:30:00Z,27.3400,-84.2750,0.0,29.65,2 
Scripps,ioos:station:wmo:42099:1,2016-10-01T09:30:00Z,27.3400,-84.2750,0.0,29.6,2 
Scripps,ioos:station:wmo:42099:1,2016-10-01T10:30:00Z,27.3400,-84.2750,0.0,29.6,2 
Scripps,ioos:station:wmo:42099:1,2016-10-01T12:00:00Z,27.3400,-84.2750,0.0,29.55,2 
Scripps,ioos:station:wmo:42099:1,2016-10-01T13:30:00Z,27.3400,-84.2750,0.0,29.6,2 
Scripps,ioos:station:wmo:42099:1,2016-10-01T14:30:00Z,27.3400,-84.2750,0.0,29.6,2 
Scripps,ioos:station:wmo:42099:1,2016-10-01T16:30:00Z,27.3400,-84.2750,0.0,29.65,2 
Scripps,ioos:station:wmo:42099:1,2016-10-01T17:30:00Z,27.3400,-84.2750,0.0,29.7,2 
Scripps,ioos:station:wmo:42099:1,2016-10-01T18:30:00Z,27.3400,-84.2750,0.0,29.65,2 
Scripps,ioos:station:wmo:42099:1,2016-10-01T19:30:00Z,27.3400,-84.2750,0.0,29.75,2 
Scripps,ioos:station:wmo:42099:1,2016-10-01T20:00:00Z,27.3400,-84.2750,0.0,29.75,2 
Scripps,ioos:station:wmo:42099:1,2016-10-01T21:30:00Z,27.3400,-84.2750,0.0,29.75,2 
Scripps,ioos:station:wmo:42099:1,2016-10-01T23:30:00Z,27.3400,-84.2750,0.0,29.75,2 
Scripps,ioos:station:wmo:42099:1,2016-10-02T00:00:00Z,27.3400,-84.2750,0.0,29.75,2 
Scripps,ioos:station:wmo:42099:1,2016-10-02T01:30:00Z,27.3400,-84.2750,0.0,29.55,2 
Scripps,ioos:station:wmo:42099:1,2016-10-02T02:00:00Z,27.3400,-84.2750,0.0,29.55,2 
Scripps,ioos:station:wmo:42099:1,2016-10-02T03:30:00Z,27.3400,-84.2750,0.0,29.5,2 
Scripps,ioos:station:wmo:42099:1,2016-10-02T04:30:00Z,27.3400,-84.2750,0.0,29.5,2 
Scripps,ioos:station:wmo:42099:1,2016-10-02T05:30:00Z,27.3400,-84.2750,0.0,29.5,2 
Scripps,ioos:station:wmo:42099:1,2016-10-02T06:00:00Z,27.3400,-84.2750,0.0,29.5,2 
Scripps,ioos:station:wmo:42099:1,2016-10-02T07:30:00Z,27.3400,-84.2750,0.0,29.45,2 
Scripps,ioos:station:wmo:42099:1,2016-10-02T08:00:00Z,27.3400,-84.2750,0.0,29.45,2 
Scripps,ioos:station:wmo:42099:1,2016-10-02T09:00:00Z,27.3400,-84.2750,0.0,29.4,2 
Scripps,ioos:station:wmo:42099:1,2016-10-02T10:30:00Z,27.3400,-84.2750,0.0,29.4,2 
Scripps,ioos:station:wmo:42099:1,2016-10-02T11:30:00Z,27.3400,-84.2750,0.0,29.4,2 
Scripps,ioos:station:wmo:42099:1,2016-10-02T12:30:00Z,27.3400,-84.2750,0.0,29.35,2 
Scripps,ioos:station:wmo:42099:1,2016-10-02T13:00:00Z,27.3400,-84.2750,0.0,29.35,2 
Scripps,ioos:station:wmo:42099:1,2016-10-02T14:30:00Z,27.3400,-84.2750,0.0,29.4,2 
Scripps,ioos:station:wmo:42099:1,2016-10-02T15:30:00Z,27.3400,-84.2750,0.0,29.5,2 
Scripps,ioos:station:wmo:42099:1,2016-10-02T16:30:00Z,27.3400,-84.2750,0.0,29.6,2 
Scripps,ioos:station:wmo:42099:1,2016-10-02T17:30:00Z,27.3400,-84.2750,0.0,29.65,2 
Scripps,ioos:station:wmo:42099:1,2016-10-02T18:30:00Z,27.3400,-84.2750,0.0,29.7,2 
Scripps,ioos:station:wmo:42099:1,2016-10-02T19:30:00Z,27.3400,-84.2750,0.0,29.75,2 
Scripps,ioos:station:wmo:42099:1,2016-10-02T20:00:00Z,27.3400,-84.2750,0.0,29.8,2 
Scripps,ioos:station:wmo:42099:1,2016-10-02T21:30:00Z,27.3400,-84.2750,0.0,29.75,2 
Scripps,ioos:station:wmo:42099:1,2016-10-02T22:30:00Z,27.3400,-84.2750,0.0,29.7,2 
Scripps,ioos:station:wmo:42099:1,2016-10-02T23:30:00Z,27.3400,-84.2750,0.0,29.75,2 
Scripps,ioos:station:wmo:42099:1,2016-10-03T00:30:00Z,27.3400,-84.2750,0.0,29.7,2 
Scripps,ioos:station:wmo:42099:1,2016-10-03T01:30:00Z,27.3400,-84.2750,0.0,29.65,2 
Scripps,ioos:station:wmo:42099:1,2016-10-03T02:30:00Z,27.3400,-84.2750,0.0,29.6,2 
Scripps,ioos:station:wmo:42099:1,2016-10-03T04:30:00Z,27.3400,-84.2750,0.0,29.55,2 
Scripps,ioos:station:wmo:42099:1,2016-10-03T05:00:00Z,27.3400,-84.2750,0.0,29.55,2 
Scripps,ioos:station:wmo:42099:1,2016-10-03T06:00:00Z,27.3400,-84.2750,0.0,29.55,2 
Scripps,ioos:station:wmo:42099:1,2016-10-03T07:30:00Z,27.3400,-84.2750,0.0,29.55,2 
Scripps,ioos:station:wmo:42099:1,2016-10-03T08:00:00Z,27.3400,-84.2750,0.0,29.5,2 
Scripps,ioos:station:wmo:42099:1,2016-10-03T09:00:00Z,27.3400,-84.2750,0.0,29.5,2 
Scripps,ioos:station:wmo:42099:1,2016-10-03T10:30:00Z,27.3400,-84.2750,0.0,29.5,2 
Scripps,ioos:station:wmo:42099:1,2016-10-03T11:30:00Z,27.3400,-84.2750,0.0,29.5,2 
Scripps,ioos:station:wmo:42099:1,2016-10-03T12:30:00Z,27.3400,-84.2750,0.0,29.45,2 
Scripps,ioos:station:wmo:42099:1,2016-10-03T14:30:00Z,27.3400,-84.2750,0.0,29.25,2 
Scripps,ioos:station:wmo:42099:1,2016-10-03T15:00:00Z,27.3400,-84.2750,0.0,29.25,2 
Scripps,ioos:station:wmo:42099:1,2016-10-03T16:30:00Z,27.3400,-84.2750,0.0,29.25,2 
Scripps,ioos:station:wmo:42099:1,2016-10-03T17:30:00Z,27.3400,-84.2750,0.0,29.1,2 
Scripps,ioos:station:wmo:42099:1,2016-10-03T18:30:00Z,27.3400,-84.2750,0.0,29.05,2 
Scripps,ioos:station:wmo:42099:1,2016-10-03T19:30:00Z,27.3400,-84.2750,0.0,29.0,2 
Scripps,ioos:station:wmo:42099:1,2016-10-03T20:00:00Z,27.3400,-84.2750,0.0,28.95,2 
Scripps,ioos:station:wmo:42099:1,2016-10-03T21:30:00Z,27.3400,-84.2750,0.0,29.1,2 
Scripps,ioos:station:wmo:42099:1,2016-10-03T22:00:00Z,27.3400,-84.2750,0.0,29.15,2 
Scripps,ioos:station:wmo:42099:1,2016-10-03T23:30:00Z,27.3400,-84.2750,0.0,29.25,2 
Scripps,ioos:station:wmo:42099:1,2016-10-04T00:00:00Z,27.3400,-84.2750,0.0,29.25,2 
Scripps,ioos:station:wmo:42099:1,2016-10-04T01:30:00Z,27.3400,-84.2750,0.0,29.2,2 
Scripps,ioos:station:wmo:42099:1,2016-10-04T02:30:00Z,27.3400,-84.2750,0.0,29.25,2 
Scripps,ioos:station:wmo:42099:1,2016-10-04T03:30:00Z,27.3400,-84.2750,0.0,29.25,2 
Scripps,ioos:station:wmo:42099:1,2016-10-04T04:30:00Z,27.3400,-84.2750,0.0,29.3,2 
Scripps,ioos:station:wmo:42099:1,2016-10-04T05:00:00Z,27.3400,-84.2750,0.0,29.3,2 
Scripps,ioos:station:wmo:42099:1,2016-10-04T06:00:00Z,27.3400,-84.2750,0.0,29.2,2 
Scripps,ioos:station:wmo:42099:1,2016-10-04T07:30:00Z,27.3400,-84.2750,0.0,29.2,2 
Scripps,ioos:station:wmo:42099:1,2016-10-04T08:30:00Z,27.3400,-84.2750,0.0,29.2,2 
Scripps,ioos:station:wmo:42099:1,2016-10-04T09:30:00Z,27.3400,-84.2750,0.0,29.2,2 
Scripps,ioos:station:wmo:42099:1,2016-10-04T10:30:00Z,27.3400,-84.2750,0.0,29.2,2 
Scripps,ioos:station:wmo:42099:1,2016-10-04T11:30:00Z,27.3400,-84.2750,0.0,29.2,2 
Scripps,ioos:station:wmo:42099:1,2016-10-04T12:00:00Z,27.3400,-84.2750,0.0,29.2,2 
Scripps,ioos:station:wmo:42099:1,2016-10-04T13:30:00Z,27.3400,-84.2750,0.0,29.15,2 
Scripps,ioos:station:wmo:42099:1,2016-10-04T14:30:00Z,27.3400,-84.2750,0.0,29.15,2 
Scripps,ioos:station:wmo:42099:1,2016-10-04T15:00:00Z,27.3400,-84.2750,0.0,29.2,2 
Scripps,ioos:station:wmo:42099:1,2016-10-04T16:30:00Z,27.3400,-84.2750,0.0,29.25,2 
Scripps,ioos:station:wmo:42099:1,2016-10-04T17:30:00Z,27.3400,-84.2750,0.0,29.25,2 
Scripps,ioos:station:wmo:42099:1,2016-10-04T18:00:00Z,27.3400,-84.2750,0.0,29.25,2 
Scripps,ioos:station:wmo:42099:1,2016-10-04T19:30:00Z,27.3400,-84.2750,0.0,29.25,2 
Scripps,ioos:station:wmo:42099:1,2016-10-04T20:30:00Z,27.3400,-84.2750,0.0,29.25,2 
Scripps,ioos:station:wmo:42099:1,2016-10-04T21:00:00Z,27.3400,-84.2750,0.0,29.25,2 
Scripps,ioos:station:wmo:42099:1,2016-10-04T22:00:00Z,27.3400,-84.2750,0.0,29.2,2 
Scripps,ioos:station:wmo:42099:1,2016-10-04T23:00:00Z,27.3400,-84.2750,0.0,29.2,2 
Scripps,ioos:station:wmo:42099:1,2016-10-05T00:00:00Z,27.3400,-84.2750,0.0,29.2,2 
Scripps,ioos:station:wmo:42099:1,2016-10-05T01:00:00Z,27.3400,-84.2750,0.0,29.15,2 
Scripps,ioos:station:wmo:42099:1,2016-10-05T02:00:00Z,27.3400,-84.2750,0.0,29.15,2 
Scripps,ioos:station:wmo:42099:1,2016-10-05T03:00:00Z,27.3400,-84.2750,0.0,29.15,2 
Scripps,ioos:station:wmo:42099:1,2016-10-05T04:00:00Z,27.3400,-84.2750,0.0,29.1,2 
Scripps,ioos:station:wmo:42099:1,2016-10-05T05:30:00Z,27.3400,-84.2750,0.0,29.1,2 
Scripps,ioos:station:wmo:42099:1,2016-10-05T06:00:00Z,27.3400,-84.2750,0.0,29.1,2 
Scripps,ioos:station:wmo:42099:1,2016-10-05T07:30:00Z,27.3400,-84.2750,0.0,29.1,2 
Scripps,ioos:station:wmo:42099:1,2016-10-05T08:00:00Z,27.3400,-84.2750,0.0,29.1,2 
Scripps,ioos:station:wmo:42099:1,2016-10-05T09:30:00Z,27.3400,-84.2750,0.0,29.05,2 
Scripps,ioos:station:wmo:42099:1,2016-10-05T10:30:00Z,27.3400,-84.2750,0.0,29.05,2 
Scripps,ioos:station:wmo:42099:1,2016-10-05T11:30:00Z,27.3400,-84.2750,0.0,29.05,2 
Scripps,ioos:station:wmo:42099:1,2016-10-05T12:00:00Z,27.3400,-84.2750,0.0,29.05,2 
Scripps,ioos:station:wmo:42099:1,2016-10-05T13:00:00Z,27.3400,-84.2750,0.0,29.05,2 
Scripps,ioos:station:wmo:42099:1,2016-10-05T14:00:00Z,27.3400,-84.2750,0.0,29.05,2 
Scripps,ioos:station:wmo:42099:1,2016-10-05T15:30:00Z,27.3400,-84.2750,0.0,29.0,2 
Scripps,ioos:station:wmo:42099:1,2016-10-05T16:30:00Z,27.3400,-84.2750,0.0,29.05,2 
Scripps,ioos:station:wmo:42099:1,2016-10-05T17:00:00Z,27.3400,-84.2750,0.0,29.1,2 
Scripps,ioos:station:wmo:42099:1,2016-10-05T18:30:00Z,27.3400,-84.2750,0.0,29.15,2 
Scripps,ioos:station:wmo:42099:1,2016-10-05T19:30:00Z,27.3400,-84.2750,0.0,29.15,2 
Scripps,ioos:station:wmo:42099:1,2016-10-05T20:30:00Z,27.3400,-84.2750,0.0,29.15,2 
Scripps,ioos:station:wmo:42099:1,2016-10-05T21:30:00Z,27.3400,-84.2750,0.0,29.15,2 
Scripps,ioos:station:wmo:42099:1,2016-10-05T22:30:00Z,27.3400,-84.2750,0.0,29.15,2 
Scripps,ioos:station:wmo:42099:1,2016-10-05T23:30:00Z,27.3400,-84.2750,0.0,29.1,2 
Scripps,ioos:station:wmo:42099:1,2016-10-06T00:30:00Z,27.3400,-84.2750,0.0,29.1,2 
Scripps,ioos:station:wmo:42099:1,2016-10-06T01:30:00Z,27.3400,-84.2750,0.0,29.05,2 
Scripps,ioos:station:wmo:42099:1,2016-10-06T02:30:00Z,27.3400,-84.2750,0.0,29.05,2 
Scripps,ioos:station:wmo:42099:1,2016-10-06T03:30:00Z,27.3400,-84.2750,0.0,29.05,2 
Scripps,ioos:station:wmo:42099:1,2016-10-06T04:00:00Z,27.3400,-84.2750,0.0,29.05,2 
Scripps,ioos:station:wmo:42099:1,2016-10-06T05:30:00Z,27.3400,-84.2750,0.0,29.0,2 
Scripps,ioos:station:wmo:42099:1,2016-10-06T06:00:00Z,27.3400,-84.2750,0.0,29.0,2 
Scripps,ioos:station:wmo:42099:1,2016-10-06T07:30:00Z,27.3400,-84.2750,0.0,29.05,2 
Scripps,ioos:station:wmo:42099:1,2016-10-06T08:00:00Z,27.3400,-84.2750,0.0,29.05,2 
Scripps,ioos:station:wmo:42099:1,2016-10-06T09:00:00Z,27.3400,-84.2750,0.0,29.0,2 
Scripps,ioos:station:wmo:42099:1,2016-10-06T10:30:00Z,27.3400,-84.2750,0.0,29.0,2 
Scripps,ioos:station:wmo:42099:1,2016-10-06T11:00:00Z,27.3400,-84.2750,0.0,29.0,2 
Scripps,ioos:station:wmo:42099:1,2016-10-06T12:30:00Z,27.3400,-84.2750,0.0,29.0,2 
Scripps,ioos:station:wmo:42099:1,2016-10-06T13:30:00Z,27.3400,-84.2750,0.0,28.95,2 
Scripps,ioos:station:wmo:42099:1,2016-10-06T14:30:00Z,27.3400,-84.2750,0.0,28.95,2 
Scripps,ioos:station:wmo:42099:1,2016-10-06T15:30:00Z,27.3400,-84.2750,0.0,29.0,2 
Scripps,ioos:station:wmo:42099:1,2016-10-06T16:30:00Z,27.3400,-84.2750,0.0,29.05,2 
Scripps,ioos:station:wmo:42099:1,2016-10-06T17:30:00Z,27.3400,-84.2750,0.0,29.05,2 
Scripps,ioos:station:wmo:42099:1,2016-10-06T18:30:00Z,27.3400,-84.2750,0.0,29.1,2 
Scripps,ioos:station:wmo:42099:1,2016-10-06T19:00:00Z,27.3400,-84.2750,0.0,29.1,2 
Scripps,ioos:station:wmo:42099:1,2016-10-06T20:00:00Z,27.3400,-84.2750,0.0,29.1,2 
Scripps,ioos:station:wmo:42099:1,2016-10-06T21:30:00Z,27.3400,-84.2750,0.0,29.1,2 
Scripps,ioos:station:wmo:42099:1,2016-10-06T22:30:00Z,27.3400,-84.2750,0.0,29.1,2 
Scripps,ioos:station:wmo:42099:1,2016-10-06T23:00:00Z,27.3400,-84.2750,0.0,29.1,2 
Scripps,ioos:station:wmo:42099:1,2016-10-07T00:00:00Z,27.3400,-84.2750,0.0,29.05,2 
Scripps,ioos:station:wmo:42099:1,2016-10-07T01:30:00Z,27.3400,-84.2750,0.0,29.0,2 
Scripps,ioos:station:wmo:42099:1,2016-10-07T02:30:00Z,27.3400,-84.2750,0.0,28.95,2 
Scripps,ioos:station:wmo:42099:1,2016-10-07T03:30:00Z,27.3400,-84.2750,0.0,28.95,2 
Scripps,ioos:station:wmo:42099:1,2016-10-07T04:00:00Z,27.3400,-84.2750,0.0,29.0,2 
Scripps,ioos:station:wmo:42099:1,2016-10-07T05:00:00Z,27.3400,-84.2750,0.0,28.95,2 
Scripps,ioos:station:wmo:42099:1,2016-10-07T06:00:00Z,27.3400,-84.2750,0.0,28.9,2 
Scripps,ioos:station:wmo:42099:1,2016-10-07T07:30:00Z,27.3400,-84.2750,0.0,28.85,2 
Scripps,ioos:station:wmo:42099:1,2016-10-07T08:30:00Z,27.3400,-84.2750,0.0,28.85,2 
Scripps,ioos:station:wmo:42099:1,2016-10-07T09:30:00Z,27.3400,-84.2750,0.0,28.85,2 
Scripps,ioos:station:wmo:42099:1,2016-10-07T10:30:00Z,27.3400,-84.2750,0.0,28.8,2 
Scripps,ioos:station:wmo:42099:1,2016-10-07T13:30:00Z,27.3400,-84.2750,0.0,28.75,2 
Scripps,ioos:station:wmo:42099:1,2016-10-07T14:30:00Z,27.3400,-84.2750,0.0,28.75,2 
Scripps,ioos:station:wmo:42099:1,2016-10-07T15:30:00Z,27.3400,-84.2750,0.0,28.8,2 
Scripps,ioos:station:wmo:42099:1,2016-10-07T16:00:00Z,27.3400,-84.2750,0.0,28.8,2 
Scripps,ioos:station:wmo:42099:1,2016-10-07T18:00:00Z,27.3400,-84.2750,0.0,28.8,2 
Scripps,ioos:station:wmo:42099:1,2016-10-07T18:30:00Z,27.3400,-84.2750,0.0,28.8,2 
Scripps,ioos:station:wmo:42099:1,2016-10-07T19:30:00Z,27.3400,-84.2750,0.0,28.8,2 
Scripps,ioos:station:wmo:42099:1,2016-10-07T21:00:00Z,27.3400,-84.2750,0.0,28.85,2 
Scripps,ioos:station:wmo:42099:1,2016-10-07T22:00:00Z,27.3400,-84.2750,0.0,28.8,2 
Scripps,ioos:station:wmo:42099:1,2016-10-07T23:30:00Z,27.3400,-84.2750,0.0,28.8,2 
Scripps,ioos:station:wmo:42099:1,2016-10-08T00:30:00Z,27.3400,-84.2750,0.0,28.75,2 
Scripps,ioos:station:wmo:42099:1,2016-10-08T01:00:00Z,27.3400,-84.2750,0.0,28.75,2 
Scripps,ioos:station:wmo:42099:1,2016-10-08T02:30:00Z,27.3400,-84.2750,0.0,28.75,2 
Scripps,ioos:station:wmo:42099:1,2016-10-08T03:00:00Z,27.3400,-84.2750,0.0,28.75,2 
Scripps,ioos:station:wmo:42099:1,2016-10-08T04:30:00Z,27.3400,-84.2750,0.0,28.75,2 
Scripps,ioos:station:wmo:42099:1,2016-10-08T05:00:00Z,27.3400,-84.2750,0.0,28.75,2 
Scripps,ioos:station:wmo:42099:1,2016-10-08T07:00:00Z,27.3400,-84.2750,0.0,28.8,2 
Scripps,ioos:station:wmo:42099:1,2016-10-08T08:00:00Z,27.3400,-84.2750,0.0,28.8,2 
Scripps,ioos:station:wmo:42099:1,2016-10-08T09:00:00Z,27.3400,-84.2750,0.0,28.8,2 
Scripps,ioos:station:wmo:42099:1,2016-10-08T10:30:00Z,27.3400,-84.2750,0.0,28.8,2 
Scripps,ioos:station:wmo:42099:1,2016-10-08T11:00:00Z,27.3400,-84.2750,0.0,28.85,2 
Scripps,ioos:station:wmo:42099:1,2016-10-08T12:00:00Z,27.3400,-84.2750,0.0,28.8,2 
Scripps,ioos:station:wmo:42099:1,2016-10-08T13:30:00Z,27.3400,-84.2750,0.0,28.8,2 
Scripps,ioos:station:wmo:42099:1,2016-10-08T14:30:00Z,27.3400,-84.2750,0.0,28.8,2 
Scripps,ioos:station:wmo:42099:1,2016-10-08T15:30:00Z,27.3400,-84.2750,0.0,28.8,2 
Scripps,ioos:station:wmo:42099:1,2016-10-08T17:00:00Z,27.3400,-84.2750,0.0,28.85,2 
Scripps,ioos:station:wmo:42099:1,2016-10-08T18:30:00Z,27.3400,-84.2750,0.0,28.85,2 
Scripps,ioos:station:wmo:42099:1,2016-10-08T19:30:00Z,27.3400,-84.2750,0.0,28.85,2 
Scripps,ioos:station:wmo:42099:1,2016-10-08T20:30:00Z,27.3400,-84.2750,0.0,28.85,2 
Scripps,ioos:station:wmo:42099:1,2016-10-08T21:00:00Z,27.3400,-84.2750,0.0,28.85,2 
Scripps,ioos:station:wmo:42099:1,2016-10-08T22:30:00Z,27.3400,-84.2750,0.0,28.85,2 
Scripps,ioos:station:wmo:42099:1,2016-10-08T23:00:00Z,27.3400,-84.2750,0.0,28.85,2 
Scripps,ioos:station:wmo:42099:1,2016-10-09T00:30:00Z,27.3400,-84.2750,0.0,28.85,2 
Scripps,ioos:station:wmo:42099:1,2016-10-09T01:00:00Z,27.3400,-84.2750,0.0,28.85,2 
Scripps,ioos:station:wmo:42099:1,2016-10-09T02:30:00Z,27.3400,-84.2750,0.0,28.8,2 
Scripps,ioos:station:wmo:42099:1,2016-10-09T03:30:00Z,27.3400,-84.2750,0.0,28.8,2 
Scripps,ioos:station:wmo:42099:1,2016-10-09T06:30:00Z,27.3400,-84.2750,0.0,28.8,2 
Scripps,ioos:station:wmo:42099:1,2016-10-09T08:30:00Z,27.3400,-84.2750,0.0,28.75,2 
Scripps,ioos:station:wmo:42099:1,2016-10-09T09:30:00Z,27.3400,-84.2750,0.0,28.75,2 
Scripps,ioos:station:wmo:42099:1,2016-10-09T10:30:00Z,27.3400,-84.2750,0.0,28.75,2 
Scripps,ioos:station:wmo:42099:1,2016-10-09T11:30:00Z,27.3400,-84.2750,0.0,28.75,2 
Scripps,ioos:station:wmo:42099:1,2016-10-09T12:30:00Z,27.3400,-84.2750,0.0,28.75,2 
Scripps,ioos:station:wmo:42099:1,2016-10-09T13:30:00Z,27.3400,-84.2750,0.0,28.8,2 
Scripps,ioos:station:wmo:42099:1,2016-10-09T14:30:00Z,27.3400,-84.2750,0.0,28.8,2 
Scripps,ioos:station:wmo:42099:1,2016-10-09T15:30:00Z,27.3400,-84.2750,0.0,28.85,2 
Scripps,ioos:station:wmo:42099:1,2016-10-09T16:00:00Z,27.3400,-84.2750,0.0,28.85,2 
Scripps,ioos:station:wmo:42099:1,2016-10-09T17:30:00Z,27.3400,-84.2750,0.0,29.05,2 
Scripps,ioos:station:wmo:42099:1,2016-10-09T18:30:00Z,27.3400,-84.2750,0.0,29.25,2 
Scripps,ioos:station:wmo:42099:1,2016-10-09T19:00:00Z,27.3400,-84.2750,0.0,29.25,2 
Scripps,ioos:station:wmo:42099:1,2016-10-09T20:30:00Z,27.3400,-84.2750,0.0,29.15,2 
Scripps,ioos:station:wmo:42099:1,2016-10-09T21:30:00Z,27.3400,-84.2750,0.0,29.15,2 
Scripps,ioos:station:wmo:42099:1,2016-10-09T22:30:00Z,27.3400,-84.2750,0.0,29.05,2 
Scripps,ioos:station:wmo:42099:1,2016-10-09T23:30:00Z,27.3400,-84.2750,0.0,29.0,2 
Scripps,ioos:station:wmo:42099:1,2016-10-10T00:00:00Z,27.3400,-84.2750,0.0,29.0,2 
Scripps,ioos:station:wmo:42099:1,2016-10-10T01:30:00Z,27.3400,-84.2750,0.0,29.0,2 
Scripps,ioos:station:wmo:42099:1,2016-10-10T02:00:00Z,27.3400,-84.2750,0.0,28.95,2 
Scripps,ioos:station:wmo:42099:1,2016-10-10T03:30:00Z,27.3400,-84.2750,0.0,28.95,2 
Scripps,ioos:station:wmo:42099:1,2016-10-10T04:00:00Z,27.3400,-84.2750,0.0,28.95,2 
Scripps,ioos:station:wmo:42099:1,2016-10-10T05:30:00Z,27.3400,-84.2750,0.0,28.9,2 
Scripps,ioos:station:wmo:42099:1,2016-10-10T06:00:00Z,27.3400,-84.2750,0.0,28.9,2 
Scripps,ioos:station:wmo:42099:1,2016-10-10T07:30:00Z,27.3400,-84.2750,0.0,28.85,2 
Scripps,ioos:station:wmo:42099:1,2016-10-10T08:30:00Z,27.3400,-84.2750,0.0,28.85,2 
Scripps,ioos:station:wmo:42099:1,2016-10-10T09:00:00Z,27.3400,-84.2750,0.0,28.8,2 
Scripps,ioos:station:wmo:42099:1,2016-10-10T10:00:00Z,27.3400,-84.2750,0.0,28.8,2 
Scripps,ioos:station:wmo:42099:1,2016-10-10T12:00:00Z,27.3400,-84.2750,0.0,28.8,2 
Scripps,ioos:station:wmo:42099:1,2016-10-10T13:30:00Z,27.3400,-84.2750,0.0,28.8,2 
Scripps,ioos:station:wmo:42099:1,2016-10-10T15:30:00Z,27.3400,-84.2750,0.0,28.75,2 
Scripps,ioos:station:wmo:42099:1,2016-10-10T16:30:00Z,27.3400,-84.2750,0.0,28.8,2 
Scripps,ioos:station:wmo:42099:1,2016-10-10T17:30:00Z,27.3400,-84.2750,0.0,28.8,2 
Scripps,ioos:station:wmo:42099:1,2016-10-10T18:30:00Z,27.3400,-84.2750,0.0,28.85,2 
Scripps,ioos:station:wmo:42099:1,2016-10-10T19:00:00Z,27.3400,-84.2750,0.0,28.8,2 
Scripps,ioos:station:wmo:42099:1,2016-10-10T20:00:00Z,27.3400,-84.2750,0.0,28.8,2 
Scripps,ioos:station:wmo:42099:1,2016-10-10T21:00:00Z,27.3400,-84.2750,0.0,28.8,2 
Scripps,ioos:station:wmo:42099:1,2016-10-10T22:30:00Z,27.3400,-84.2750,0.0,28.8,2 
Scripps,ioos:station:wmo:42099:1,2016-10-10T23:30:00Z,27.3400,-84.2750,0.0,28.8,2 
Scripps,ioos:station:wmo:42099:1,2016-10-11T00:30:00Z,27.3400,-84.2750,0.0,28.75,2 
Scripps,ioos:station:wmo:42099:1,2016-10-11T01:00:00Z,27.3400,-84.2750,0.0,28.75,2 
Scripps,ioos:station:wmo:42099:1,2016-10-11T02:30:00Z,27.3400,-84.2750,0.0,28.7,2 
Scripps,ioos:station:wmo:42099:1,2016-10-11T03:00:00Z,27.3400,-84.2750,0.0,28.7,2 
Scripps,ioos:station:wmo:42099:1,2016-10-11T04:30:00Z,27.3400,-84.2750,0.0,28.7,2 
Scripps,ioos:station:wmo:42099:1,2016-10-11T05:30:00Z,27.3400,-84.2750,0.0,28.7,2 
Scripps,ioos:station:wmo:42099:1,2016-10-11T06:30:00Z,27.3400,-84.2750,0.0,28.65,2 
Scripps,ioos:station:wmo:42099:1,2016-10-11T07:00:00Z,27.3400,-84.2750,0.0,28.65,2 
Scripps,ioos:station:wmo:42099:1,2016-10-11T08:00:00Z,27.3400,-84.2750,0.0,28.65,2 
Scripps,ioos:station:wmo:42099:1,2016-10-11T09:30:00Z,27.3400,-84.2750,0.0,28.65,2 
Scripps,ioos:station:wmo:42099:1,2016-10-11T11:00:00Z,27.3400,-84.2750,0.0,28.6,2 
Scripps,ioos:station:wmo:42099:1,2016-10-11T12:00:00Z,27.3400,-84.2750,0.0,28.6,2 
Scripps,ioos:station:wmo:42099:1,2016-10-11T13:30:00Z,27.3400,-84.2750,0.0,28.6,2 
Scripps,ioos:station:wmo:42099:1,2016-10-11T14:30:00Z,27.3400,-84.2750,0.0,28.55,2 
Scripps,ioos:station:wmo:42099:1,2016-10-11T15:30:00Z,27.3400,-84.2750,0.0,28.55,2 
Scripps,ioos:station:wmo:42099:1,2016-10-11T16:30:00Z,27.3400,-84.2750,0.0,28.55,2 
Scripps,ioos:station:wmo:42099:1,2016-10-11T17:30:00Z,27.3400,-84.2750,0.0,28.6,2 
Scripps,ioos:station:wmo:42099:1,2016-10-11T18:00:00Z,27.3400,-84.2750,0.0,28.6,2 
Scripps,ioos:station:wmo:42099:1,2016-10-11T19:30:00Z,27.3400,-84.2750,0.0,28.6,2 
Scripps,ioos:station:wmo:42099:1,2016-10-11T20:00:00Z,27.3400,-84.2750,0.0,28.55,2 
Scripps,ioos:station:wmo:42099:1,2016-10-11T21:00:00Z,27.3400,-84.2750,0.0,28.55,2 
Scripps,ioos:station:wmo:42099:1,2016-10-11T22:30:00Z,27.3400,-84.2750,0.0,28.5,2 
Scripps,ioos:station:wmo:42099:1,2016-10-11T23:00:00Z,27.3400,-84.2750,0.0,28.5,2 
Scripps,ioos:station:wmo:42099:1,2016-10-12T00:30:00Z,27.3400,-84.2750,0.0,28.5,2 
Scripps,ioos:station:wmo:42099:1,2016-10-12T01:30:00Z,27.3400,-84.2750,0.0,28.45,2 
Scripps,ioos:station:wmo:42099:1,2016-10-12T02:30:00Z,27.3400,-84.2750,0.0,28.45,2 
Scripps,ioos:station:wmo:42099:1,2016-10-12T04:30:00Z,27.3400,-84.2750,0.0,28.45,2 
Scripps,ioos:station:wmo:42099:1,2016-10-12T05:30:00Z,27.3400,-84.2750,0.0,28.45,2 
Scripps,ioos:station:wmo:42099:1,2016-10-12T07:00:00Z,27.3400,-84.2750,0.0,28.4,2 
Scripps,ioos:station:wmo:42099:1,2016-10-12T08:30:00Z,27.3400,-84.2750,0.0,28.4,2 
Scripps,ioos:station:wmo:42099:1,2016-10-12T10:30:00Z,27.3400,-84.2750,0.0,28.4,2 
Scripps,ioos:station:wmo:42099:1,2016-10-12T11:30:00Z,27.3400,-84.2750,0.0,28.35,2 
Scripps,ioos:station:wmo:42099:1,2016-10-12T13:30:00Z,27.3400,-84.2750,0.0,28.35,2 
Scripps,ioos:station:wmo:42099:1,2016-10-12T14:00:00Z,27.3400,-84.2750,0.0,28.35,2 
Scripps,ioos:station:wmo:42099:1,2016-10-12T15:30:00Z,27.3400,-84.2750,0.0,28.35,2 
Scripps,ioos:station:wmo:42099:1,2016-10-12T16:30:00Z,27.3400,-84.2750,0.0,28.35,2 
Scripps,ioos:station:wmo:42099:1,2016-10-12T17:30:00Z,27.3400,-84.2750,0.0,28.4,2 
Scripps,ioos:station:wmo:42099:1,2016-10-12T18:30:00Z,27.3400,-84.2750,0.0,28.4,2 
Scripps,ioos:station:wmo:42099:1,2016-10-12T19:30:00Z,27.3400,-84.2750,0.0,28.4,2 
Scripps,ioos:station:wmo:42099:1,2016-10-12T20:30:00Z,27.3400,-84.2750,0.0,28.5,2 
Scripps,ioos:station:wmo:42099:1,2016-10-12T21:00:00Z,27.3400,-84.2750,0.0,28.5,2 
Scripps,ioos:station:wmo:42099:1,2016-10-12T22:30:00Z,27.3400,-84.2750,0.0,28.5,2 
Scripps,ioos:station:wmo:42099:1,2016-10-12T23:00:00Z,27.3400,-84.2750,0.0,28.5,2 
Scripps,ioos:station:wmo:42099:1,2016-10-13T00:00:00Z,27.3400,-84.2750,0.0,28.55,2 
Scripps,ioos:station:wmo:42099:1,2016-10-13T01:30:00Z,27.3400,-84.2750,0.0,28.55,2 
Scripps,ioos:station:wmo:42099:1,2016-10-13T03:00:00Z,27.3400,-84.2750,0.0,28.55,2 
Scripps,ioos:station:wmo:42099:1,2016-10-13T04:00:00Z,27.3400,-84.2750,0.0,28.55,2 
Scripps,ioos:station:wmo:42099:1,2016-10-13T05:00:00Z,27.3400,-84.2750,0.0,28.55,2 
Scripps,ioos:station:wmo:42099:1,2016-10-13T06:00:00Z,27.3400,-84.2750,0.0,28.55,2 
Scripps,ioos:station:wmo:42099:1,2016-10-13T07:00:00Z,27.3400,-84.2750,0.0,28.5,2 
Scripps,ioos:station:wmo:42099:1,2016-10-13T08:00:00Z,27.3400,-84.2750,0.0,28.5,2 
Scripps,ioos:station:wmo:42099:1,2016-10-13T09:00:00Z,27.3400,-84.2750,0.0,28.55,2 
Scripps,ioos:station:wmo:42099:1,2016-10-13T10:30:00Z,27.3400,-84.2750,0.0,28.55,2 
Scripps,ioos:station:wmo:42099:1,2016-10-13T11:30:00Z,27.3400,-84.2750,0.0,28.55,2 
Scripps,ioos:station:wmo:42099:1,2016-10-13T12:00:00Z,27.3400,-84.2750,0.0,28.5,2 
Scripps,ioos:station:wmo:42099:1,2016-10-13T14:30:00Z,27.3400,-84.2750,0.0,28.5,2 
Scripps,ioos:station:wmo:42099:1,2016-10-13T15:00:00Z,27.3400,-84.2750,0.0,28.55,2 
Scripps,ioos:station:wmo:42099:1,2016-10-13T16:00:00Z,27.3400,-84.2750,0.0,28.55,2 
Scripps,ioos:station:wmo:42099:1,2016-10-13T18:30:00Z,27.3400,-84.2750,0.0,28.6,2 
Scripps,ioos:station:wmo:42099:1,2016-10-13T19:00:00Z,27.3400,-84.2750,0.0,28.6,2 
Scripps,ioos:station:wmo:42099:1,2016-10-13T20:00:00Z,27.3400,-84.2750,0.0,28.6,2 
Scripps,ioos:station:wmo:42099:1,2016-10-13T21:30:00Z,27.3400,-84.2750,0.0,28.6,2 